Starlink 30229

operational
NORAD ID: 57461 Int'l Des: 2023-107 Owner: SPXS Country: US Constellation: starlink
LEOCIRCULAR

关于 Starlink 30229

正在加载描述...

实时位置

正在加载3D地球...

即将过境

高度历史

Altitude vs Time

uPlot chart will show altitude changes over time

两行轨道根数

1 57461U 23107E 25306.01118144 -.00000241 00000-0 -27710-5 0 9993
2 57461 43.0075 313.0430 0001249 270.0882 89.9817 15.02531708125902
Epoch: Nov 2, 2025 • Age: 44 hours

当前状态

高度 566.5 km
速度 7.58 km/s
星下点 -30.24°S, 89.79°W
发射日期 Jul 28, 2023
运行时间 2.2 years
类型 internet

技术详情

分类 Payload
质量 730.00 kg
干质量 700.00 kg
总质量 730.00 kg
长度 0.30 m
直径 4.10 m
跨度 29.00 m
形状 Box + pan
制造商 SPXS
平台类型 Starlink V2M
阶段状态 In Orbit
所有者/国家 SPXS/US

大型星座

Loading constellations...